Oscoda, MI

1:19 AM EST on December 11, 2019 (GMT -0500)
Oscoda-Wurtsmith

Weather History for KOSC - October, 2019

Change the Weather History Date:

Tuesday, October 15, 2019

  Actual Average Record
Temperature  
Mean Temperature 42 °F -  
Max Temperature 54 °F 55 °F 68 °F (2017)
Min Temperature 30 °F 38 °F 30 °F (2006)
Degree Days  
Heating Degree Days 23    
Moisture  
Dew Point 38 °F    
Average Humidity 81    
Maximum Humidity 94    
Minimum Humidity 60    
Precipitation  
Precipitation 0.22 in - - ()
Sea Level Pressure  
Sea Level Pressure 29.94 in    
Wind  
Wind Speed 6 mph (SSE)    
Max Wind Speed 14 mph    
Max Gust Speed 22 mph    
Visibility 10 miles    
Events Rain    
Averages and records for this station are not official NWS values.
T = Trace of Precipitation, MM = Missing Value Source: NWS Daily Summary

Daily Weather History Graph

Daily Weather History Graph

Search for Another Location

Airport or City:

Astronomy

Oct. 15, 2019 Rise Set
Actual Time 7:48 AM EDT 6:49 PM EDT
Civil Twilight 7:19 AM EDT 7:18 PM EDT
Nautical Twilight 6:45 AM EDT 7:52 PM EDT
Astronomical Twilight 6:11 AM EDT 8:26 PM EDT
Moon 8:06 PM EDT (10/15) 9:19 AM EDT (10/15)
Length of Visible Light 11h 59m
Length of Day
11h 01m
Full, 97% of the Moon is Illuminated
Oct 15
Full
Oct 21
Last Quarter
Oct 27
New
Nov 4
First Quarter
Nov 12
Full

Hourly Weather History & Observations

Time (EDT) Temp. Windchill Dew Point Humidity Pressure Visibility Wind Dir Wind Speed Gust Speed Precip Events Conditions
12:17 AM 34.2 °F 28.2 °F 31.1 °F 89% 30.07 in 10.0 mi SW 6.9 mph - N/A   Clear
12:35 AM 33.8 °F 27.7 °F 30.4 °F 87% 30.08 in 10.0 mi SW 6.9 mph - N/A   Clear
12:36 AM 33.6 °F 26.8 °F 30.2 °F 87% 30.08 in 10.0 mi SW 8.1 mph - N/A   Clear
12:55 AM 35.6 °F 29.2 °F 32.0 °F 87% 30.07 in 10.0 mi SW 8.1 mph - N/A   Clear
12:56 AM 35.6 °F 29.2 °F 32.0 °F 87% 30.07 in 10.0 mi SW 8.1 mph - N/A   Clear
1:15 AM 35.4 °F 29.7 °F 31.8 °F 87% 30.07 in 10.0 mi SW 6.9 mph - N/A   Clear
1:38 AM 35.4 °F 30.5 °F 31.6 °F 86% 30.07 in 10.0 mi SW 5.8 mph - N/A   Clear
1:55 AM 35.8 °F 30.9 °F 32.0 °F 86% 30.07 in 10.0 mi SW 5.8 mph - N/A   Clear
2:15 AM 34.7 °F 29.6 °F 31.5 °F 88% 30.07 in 10.0 mi SW 5.8 mph - N/A   Clear
2:35 AM 34.9 °F 29.0 °F 32.0 °F 89% 30.07 in 10.0 mi SSW 6.9 mph - N/A   Clear
2:36 AM 35.1 °F 30.1 °F 32.0 °F 89% 30.07 in 10.0 mi SSW 5.8 mph - N/A   Clear
2:59 AM 34.2 °F 27.5 °F 31.1 °F 89% 30.07 in 10.0 mi SW 8.1 mph - N/A   Clear
3:17 AM 34.3 °F 28.4 °F 31.6 °F 90% 30.07 in 10.0 mi SW 6.9 mph - N/A   Clear
3:35 AM 34.3 °F 28.4 °F 31.5 °F 89% 30.07 in 10.0 mi SW 6.9 mph - N/A   Clear
3:55 AM 32.2 °F - 29.7 °F 90% 30.07 in 10.0 mi Calm Calm - N/A   Clear
3:56 AM 32.2 °F - 29.8 °F 91% 30.07 in 10.0 mi Calm Calm - N/A   Clear
4:15 AM 32.9 °F - 30.7 °F 92% 30.07 in 10.0 mi Calm Calm - N/A   Clear
4:20 AM 32.7 °F - 30.7 °F 92% 30.07 in 10.0 mi Calm Calm - N/A   Clear
4:37 AM 31.8 °F - 29.1 °F 90% 30.07 in 10.0 mi Calm Calm - N/A   Clear
4:56 AM 31.1 °F - 28.6 °F 90% 30.07 in 10.0 mi Calm Calm - N/A   Clear
5:15 AM 30.6 °F - 28.4 °F 92% 30.07 in 10.0 mi Calm Calm - N/A   Clear
5:16 AM 30.7 °F - 28.6 °F 92% 30.07 in 10.0 mi Calm Calm - N/A   Clear
5:35 AM 30.9 °F - 29.1 °F 93% 30.07 in 10.0 mi Calm Calm - N/A   Clear
5:59 AM 31.6 °F 28.3 °F 30.0 °F 94% 30.08 in 10.0 mi SW 3.5 mph - N/A   Clear
6:17 AM 30.7 °F 26.0 °F 28.8 °F 92% 30.07 in 10.0 mi SW 4.6 mph - N/A   Clear
6:35 AM 32.0 °F 28.7 °F 30.4 °F 94% 30.08 in 10.0 mi SW 3.5 mph - N/A   Clear
6:36 AM 32.0 °F 28.7 °F 30.6 °F 94% 30.08 in 10.0 mi SW 3.5 mph - N/A   Clear
6:55 AM 32.2 °F 28.9 °F 30.7 °F 94% 30.07 in 10.0 mi SSW 3.5 mph - N/A   Clear
6:56 AM 32.2 °F 28.9 °F 30.7 °F 94% 30.07 in 10.0 mi SSW 3.5 mph - N/A   Clear
7:15 AM 32.0 °F 28.7 °F 30.2 °F 93% 30.07 in 10.0 mi SSW 3.5 mph - N/A   Clear
7:20 AM 32.0 °F 28.7 °F 30.4 °F 94% 30.06 in 10.0 mi SSW 3.5 mph - N/A   Clear
7:38 AM 34.2 °F 29.0 °F 32.4 °F 93% 30.06 in 10.0 mi SSW 5.8 mph - N/A   Clear
7:56 AM 34.7 °F 30.6 °F 32.0 °F 90% 30.06 in 10.0 mi SSW 4.6 mph - N/A   Clear
8:15 AM 34.0 °F 29.8 °F 32.0 °F 92% 30.06 in 10.0 mi SSW 4.6 mph - N/A   Clear
8:35 AM 34.7 °F 31.8 °F 32.2 °F 91% 30.05 in 10.0 mi SSW 3.5 mph - N/A   Clear
8:59 AM 36.7 °F - 33.8 °F 89% 30.05 in 10.0 mi Calm Calm - N/A   Clear
9:17 AM 37.6 °F 35.1 °F 34.5 °F 89% 30.05 in 10.0 mi SW 3.5 mph - N/A   Clear
9:35 AM 39.2 °F 34.2 °F 35.1 °F 85% 30.04 in 10.0 mi SSW 6.9 mph - N/A   Clear
9:55 AM 40.3 °F 36.3 °F 35.2 °F 82% 30.03 in 10.0 mi SSW 5.8 mph - N/A   Mostly Cloudy
9:56 AM 40.3 °F 36.3 °F 35.4 °F 83% 30.03 in 10.0 mi SSW 5.8 mph - N/A   Mostly Cloudy
10:15 AM 42.1 °F 37.7 °F 37.4 °F 83% 30.03 in 10.0 mi SW 6.9 mph - N/A   Scattered Clouds
10:20 AM 42.4 °F 38.8 °F 37.8 °F 83% 30.03 in 10.0 mi SW 5.8 mph - N/A   Clear
10:37 AM 44.1 °F 40.1 °F 39.0 °F 82% 30.03 in 10.0 mi SSW 6.9 mph - N/A   Clear
10:56 AM 45.5 °F 42.5 °F 39.6 °F 80% 30.01 in 10.0 mi South 5.8 mph - N/A   Clear
11:15 AM 47.3 °F - 39.9 °F 76% 30.01 in 10.0 mi SSW 5.8 mph - N/A   Clear
11:16 AM 47.5 °F - 40.1 °F 76% 30.01 in 10.0 mi South 8.1 mph - N/A   Clear
11:35 AM 49.1 °F - 38.5 °F 67% 30.00 in 10.0 mi South 10.4 mph - N/A   Clear
11:36 AM 49.1 °F - 38.5 °F 67% 30.00 in 10.0 mi South 9.2 mph - N/A   Clear
11:58 AM 49.8 °F - 38.1 °F 64% 30.01 in 10.0 mi South 8.1 mph - N/A   Clear
12:17 PM 49.6 °F - 37.4 °F 63% 30.00 in 10.0 mi South 8.1 mph - N/A   Clear
12:35 PM 50.5 °F - 38.3 °F 63% 29.99 in 10.0 mi South 5.8 mph - N/A   Clear
12:55 PM 50.0 °F - 37.2 °F 62% 29.98 in 10.0 mi South 6.9 mph - N/A   Clear
12:56 PM 50.0 °F - 37.4 °F 62% 29.99 in 10.0 mi South 6.9 mph - N/A   Clear
1:15 PM 50.0 °F - 36.7 °F 60% 29.96 in 10.0 mi SSE 6.9 mph - N/A   Scattered Clouds
1:20 PM 49.8 °F - 36.9 °F 61% 29.96 in 10.0 mi SE 5.8 mph - N/A   Scattered Clouds
1:38 PM 50.0 °F - 37.4 °F 62% 29.96 in 10.0 mi SSE 3.5 mph - N/A   Scattered Clouds
1:56 PM 49.3 °F - 38.1 °F 65% 29.95 in 10.0 mi SE 5.8 mph - N/A   Mostly Cloudy
2:15 PM 49.5 °F - 38.3 °F 65% 29.94 in 10.0 mi ESE 5.8 mph - N/A   Overcast
2:16 PM 49.5 °F - 38.3 °F 65% 29.94 in 10.0 mi ESE 4.6 mph - N/A   Overcast
2:35 PM 50.0 °F - 38.3 °F 64% 29.92 in 10.0 mi ESE 3.5 mph - N/A   Mostly Cloudy
2:36 PM 50.0 °F - 38.3 °F 64% 29.93 in 10.0 mi SE 3.5 mph - N/A   Mostly Cloudy
2:59 PM 50.0 °F - 38.3 °F 64% 29.90 in 10.0 mi East 5.8 mph - N/A   Overcast
3:17 PM 50.4 °F - 38.3 °F 63% 29.90 in 10.0 mi East 5.8 mph - N/A   Overcast
3:35 PM 50.2 °F - 39.4 °F 66% 29.90 in 10.0 mi East 5.8 mph - N/A   Overcast
3:55 PM 50.0 °F - 39.9 °F 68% 29.90 in 10.0 mi ESE 3.5 mph - N/A   Overcast
3:56 PM 50.0 °F - 40.1 °F 69% 29.89 in 10.0 mi East 3.5 mph - N/A   Overcast
4:15 PM 49.8 °F - 41.0 °F 72% 29.89 in 10.0 mi ESE 8.1 mph - N/A   Overcast
4:20 PM 50.0 °F - 41.0 °F 71% 29.88 in 10.0 mi East 9.2 mph - N/A   Overcast
4:38 PM 49.1 °F - 41.9 °F 76% 29.85 in 10.0 mi ESE 8.1 mph - N/A Rain Light Rain
4:56 PM 49.6 °F - 42.8 °F 77% 29.86 in 10.0 mi ESE 5.8 mph - N/A   Overcast
5:15 PM 49.8 °F - 43.3 °F 78% 29.87 in 10.0 mi East 4.6 mph - N/A Rain Light Rain
5:35 PM 50.2 °F - 43.7 °F 78% 29.86 in 10.0 mi ESE 5.8 mph - N/A Rain Light Rain
5:36 PM 50.4 °F - 43.9 °F 78% 29.86 in 10.0 mi East 5.8 mph - N/A Rain Light Rain
5:59 PM 51.1 °F - 45.0 °F 80% 29.83 in 10.0 mi ESE 11.5 mph - N/A Rain Light Rain
6:17 PM 51.4 °F - 46.4 °F 83% 29.82 in 10.0 mi ESE 8.1 mph - N/A   Overcast
6:35 PM 52.3 °F - 46.6 °F 81% 29.80 in 10.0 mi SE 12.7 mph - N/A   Overcast
6:36 PM 52.3 °F - 46.6 °F 81% 29.80 in 10.0 mi ESE 12.7 mph - N/A   Overcast
6:55 PM 52.9 °F - 46.8 °F 80% 29.78 in 10.0 mi SE 11.5 mph - N/A   Overcast
6:56 PM 52.9 °F - 46.8 °F 80% 29.78 in 10.0 mi SE 12.7 mph 18.4 mph N/A   Overcast
7:15 PM 53.6 °F - 46.6 °F 77% 29.77 in 10.0 mi SE 11.5 mph 18.4 mph N/A   Overcast
7:20 PM 53.8 °F - 46.4 °F 76% 29.76 in 10.0 mi SE 10.4 mph 17.3 mph N/A   Overcast
7:38 PM 53.8 °F - 46.2 °F 76% 29.75 in 10.0 mi SE 10.4 mph 17.3 mph N/A   Overcast
7:56 PM 53.6 °F - 47.7 °F 80% 29.75 in 10.0 mi ESE 12.7 mph 18.4 mph N/A   Overcast
8:15 PM 54.0 °F - 47.8 °F 80% 29.73 in 10.0 mi ESE 12.7 mph 19.6 mph N/A   Overcast
8:35 PM 53.8 °F - 48.6 °F 82% 29.72 in 10.0 mi SE 12.7 mph 19.6 mph N/A   Overcast
8:59 PM 54.5 °F - 48.4 °F 80% 29.70 in 10.0 mi SE 13.8 mph 21.9 mph N/A   Overcast
9:17 PM 54.1 °F - 48.9 °F 82% 29.71 in 10.0 mi ENE 5.8 mph - N/A Rain Light Rain
9:35 PM 52.7 °F - 49.1 °F 88% 29.70 in 10.0 mi NE 9.2 mph - N/A   Overcast
9:55 PM 51.8 °F - 49.1 °F 90% 29.70 in 10.0 mi NE 6.9 mph - N/A   Overcast
10:15 PM 51.1 °F - 48.7 °F 92% 29.70 in 2.5 mi ENE 8.1 mph - 0.14 in Rain Rain
10:19 PM 51.1 °F - 49.1 °F 93% 29.70 in 4.0 mi ENE 6.9 mph - 0.14 in Rain Light Rain
10:38 PM 52.0 °F - 49.1 °F 90% 29.68 in 10.0 mi East 6.9 mph - 0.16 in Rain Light Rain
10:56 PM 51.8 °F - 49.1 °F 90% 29.67 in 10.0 mi East 6.9 mph - 0.17 in Rain Light Rain
11:15 PM 52.2 °F - 49.1 °F 89% 29.68 in 10.0 mi North 3.5 mph - N/A Rain Light Rain
11:35 PM 51.8 °F - 49.3 °F 91% 29.65 in 10.0 mi NE 5.8 mph - 0.01 in Rain Light Rain
11:59 PM 51.8 °F - 49.3 °F 91% 29.61 in 7.0 mi East 10.4 mph - 0.05 in Rain Rain